Location: Unspecified
(0.0000°N, 0.0000°E)
Time: 05:12:36
(UTC+00:00)

Vanguard 3 - Pass Details

Date: 14 April 2021
Orbit: 507 x 3262 km, 33.4° (Epoch: 17 May)

Event Time Altitude Azimuth Distance (km) Brightness Sun altitude
Rises 18:12:33 0° 226° (SW) 7,215 12.5 -3.0°
Reaches altitude 10° 18:20:50 10° 208° (SSW) 5,981 11.8 -5.1°
Maximum altitude 18:30:56 17° 174° (S) 4,845 10.9 -7.6°
Drops below altitude 10° 18:39:05 10° 138° (SE) 4,737 10.6 -9.6°
Enters shadow 18:41:40 - 128° (SE) 4,921 10.6 -10.2°
